Regional Weather Roundup
Issued by NWS

Home | Current Version | Previous Version | Graphics & Text | Print | Product List | Glossary On
Versions: 1 2 3 4 5 6 7 8 9 10 11 12 13 14 15 16 17 18 19 20 21 22 23 24 25 26 27 28 29 30 31 32 33 34 35 36 37 38 39 40 41 42 43 44 45 46 47 48 49 50
000
ASUS43 KLOT 291806
RWRIL

ILLINOIS REGIONAL WEATHER ROUNDUP
NATIONAL WEATHER SERVICE CHICAGO/ROMEOVILLE IL
1200 PM CST THU JAN 29 2015

NOTE: "FAIR" INDICATES FEW OR NO CLOUDS BELOW 12,000 FEET WITH NO
SIGNIFICANT WEATHER AND/OR OBSTRUCTIONS TO VISIBILITY.

* THESE STATIONS ARE NOT UNDER NWS QUALITY CONTROL. THEY ALSO MAY NOT
  REPORT WEATHER SUCH AS PRECIPITATION OR FOG.

ILZ001-002-007-009-015-016-024-291900-
NORTHWEST ILLINOIS

CITY           SKY/WX    TMP DP  RH WIND       PRES   REMARKS
MOLINE         CLOUDY    36  30  79 NW17G26   30.08R WCI  26
6HR MIN TEMP:  34; 6HR MAX TEMP:  36;

STERLING*      CLOUDY    36  28  75 NW15G23   30.03R WCI  26
SAVANNA*       CLOUDY    37  29  74 NW15G22   30.04R WCI  27
$$

ILZ003-004-008-010-011-017-018-291900-
NORTH CENTRAL ILLINOIS

CITY           SKY/WX    TMP DP  RH WIND       PRES   REMARKS
ROCKFORD       CLOUDY    34  26  72 NW16G25   30.01R WCI  24
6HR MIN TEMP:  33; 6HR MAX TEMP:  34; 6HR PCP: TRACE;

FREEPORT*      CLOUDY    33  28  81 NW14      30.02R WCI  23
ROCHELLE*      CLOUDY    33  28  82 NW17G24   29.99S WCI  22
DE KALB*       CLOUDY    32  26  78 NW15G24   29.97R WCI  21
PERU*          CLOUDY    35  30  83 NW22      30.02R WCI  23
$$

ILZ005-006-012>014-019>023-291900-
NORTHEAST ILLINOIS

CITY           SKY/WX    TMP DP  RH WIND       PRES   REMARKS
CHICAGO-OHARE  CLOUDY    33  26  75 NW20G25   29.93R WCI  21
6HR MIN TEMP:  32; 6HR MAX TEMP:  35; 6HR PCP:  0.01;

CHICAGO-MIDWAY CLOUDY    35  27  72 NW21G30   29.93R WCI  24
6HR MIN TEMP:  35; 6HR MAX TEMP:  37; 6HR PCP: TRACE;

AURORA         CLOUDY    34  26  72 NW17G26   29.96R HAZE    WCI  23
6HR MIN TEMP:  33; 6HR MAX TEMP:  34;

LANSING*       CLOUDY    35  28  73 NW16G22   29.91R WCI  26
JOLIET*        CLOUDY    33  26  74 NW12G21   29.96R WCI  25
WAUKEGAN       CLOUDY    33  25  72 NW10G21   29.92R WCI  25
6HR MIN TEMP:  32; 6HR MAX TEMP:  33; 6HR PCP: TRACE;

DUPAGE AIRPORT LGT RAIN  33  26  75 NW17      29.95R WCI  22
6HR MIN TEMP:  33; 6HR MAX TEMP:  34; 6HR PCP: TRACE;

KANKAKEE*      CLOUDY    35  29  80 NW18G28   29.95R WCI  24
WHEELING       CLOUDY    33  25  72 NW14G23   29.95R WCI  23
6HR MIN TEMP:  33; 6HR MAX TEMP:  35; 6HR PCP: TRACE;

MORRIS*        CLOUDY    34  30  85 NW13      29.96S WCI  25
ROMEOVILLE*    CLOUDY    33  26  75 N17G25    29.95R WCI  22
NORTHERLY ISL    N/A     34  26  73 NW12        N/A  WCI  25
$$

LMZ740>746-291900-
SOUTHERN LAKE MICHIGAN

STATION/POSITION SKY/WX   TEMP    WIND        PRES    VSBY  WAVE
                          AIR SEA DIR/SP/G                  HT/PER
                          (F)     (DEG/KT/KT) (MB)    (MI)  (FT/S)
WAUKEGAN HARBOR            33     330/ 18/ 27   N/A
HARRISON CRIB              33     320/ 23/ 28   N/A
BURNHAM HARBOR             34     300/  9/ 18   N/A
CALUMET HARBOR             34     300/ 16/ 22   N/A
MICHIGAN CITY              33     300/ 27/ 32   N/A
$$

ILZ025>027-034>036-040-047-049-050-058-095>099-291900-
WEST-CENTRAL ILLINOIS

CITY           SKY/WX    TMP DP  RH WIND       PRES   REMARKS
QUINCY         CLOUDY    37  31  78 NW24G32   30.15R WCI  26
GALESBURG*     CLOUDY    35  32  88 NW15      30.09R WCI  26
MACOMB*        CLOUDY    36  33  88 NW22G29   30.13S WCI  25
JACKSONVILLE*  CLOUDY    40  33  76 NW20G28   30.11R
PITTSFIELD*    CLOUDY    39  32  76 NW17      30.15R WCI  30
$$

ILZ028>032-037-038-041>044-048-051>054-059>061-291900-
CENTRAL ILLINOIS

CITY           SKY/WX    TMP DP  RH WIND       PRES   REMARKS
PONTIAC        CLOUDY    36  31  83 NW15G22   30.00R WCI  26
BLOOMINGTON    CLOUDY    35  30  82 NW23      30.02R WCI  23
DECATUR        CLOUDY    37  30  75 NW18G30   30.04R WCI  27
PEORIA         CLOUDY    38  30  73 NW13G23   30.06R WCI  30
6HR MIN TEMP:  37; 6HR MAX TEMP:  39;

LACON*         CLOUDY    35  29  80 NW16G26   30.03R WCI  25
LINCOLN*       CLOUDY    38  31  76 NW14G23   30.06R WCI  30
SPRINGFIELD    CLOUDY    38  31  76 NW18G33   30.08R WCI  28
6HR MIN TEMP:  38; 6HR MAX TEMP:  40;

TAYLORVILLE    CLOUDY    36  32  87 NW14G25   30.08R WCI  27
$$

ILZ033-039-045-046-055>057-062-063-291900-
EAST-CENTRAL ILLINOIS

CITY           SKY/WX    TMP DP  RH WIND       PRES   REMARKS
CHAMPAIGN      CLOUDY    35  30  82 NW21      30.00R HAZE    WCI  24
DANVILLE*      CLOUDY    34  31  90 NW21G30   29.93R FOG     WCI  22
RANTOUL*       CLOUDY    36  32  85 NW23      29.98R FOG     WCI  25
MATTOON        CLOUDY    36  30  79 NW17      30.02R WCI  26
PARIS*         CLOUDY    35  33  92 W16G23    30.01R FOG     WCI  25
$$

ILZ079-100>102-291900-
SOUTHWEST ILLINOIS

CITY           SKY/WX    TMP DP  RH WIND       PRES   REMARKS
ALTON          CLOUDY    39  30  70 NW15G23   30.13R WCI  31
BELLEVILLE     CLOUDY    41  31  69 NW15      30.13R
CAHOKIA*       CLOUDY    42  32  67 NW18      30.16R
SPARTA*        CLOUDY    39  32  75 W14G24    30.16R WCI  31
$$

ILZ064>066-069>071-074>076-080>082-084>086-088>090-092>094-291900-
SOUTH-CENTRAL ILLINOIS

CITY           SKY/WX    TMP DP  RH WIND       PRES   REMARKS
CARBONDALE     CLOUDY    41  31  67 NW15      30.15R
6HR MIN TEMP:  41; 6HR MAX TEMP:  50;

CAIRO*         CLOUDY    48  36  63 NW16      30.14R
EFFINGHAM*     CLOUDY    38  30  71 W12G18    30.08R WCI  31
MARION         CLOUDY    43  32  65 NW12G18   30.14R
MT. VERNON     CLOUDY    39  30  70 W8G20     30.12R WCI  34
CENTRALIA*     CLOUDY    38  31  73 NW16G22   30.12R WCI  30
SALEM*         CLOUDY    41  33  74 W14G21    30.11R
METROPOLIS*    CLOUDY    46  36  67 NW16      30.12R
$$

ILZ067-068-072-073-078-083-087-091-291900-
SOUTHEAST ILLINOIS

CITY           SKY/WX    TMP DP  RH WIND       PRES   REMARKS
LAWRENCEVILLE  CLOUDY    39  33  79 NW22G31   30.05R WCI  29
FLORA*         CLOUDY    39  33  79 W17G23    30.09R WCI  30
FAIRFIELD*     CLOUDY    40  34  79 NW5G16    30.09R
HARRISBURG*    CLOUDY    42  34  72 NW18G26   30.12R
ROBINSON*      CLOUDY    37  33  85 NW18      30.05R WCI  27
CARMI*         CLOUDY    43  37  79 W16G24    30.09R
$$

ABBREVIATIONS USED IN REMARKS
   TC - TEMPERATURE IN CELSIUS
  WCI - WIND CHILL INDEX
   HX - HEAT INDEX
  VSB - VISIBILITY
$$



USA.gov is the U.S. government's official web portal to all federal, state and local government web resources and services.